Location: ????????
(55.8351°N, 38.7040°E)
Time: 23:00:49
(UTC+00:00)

Cosmos 1092 Rocket - Pass Details

Date: 14 April 2024
Orbit: 955 x 993 km, 83.0° (Epoch: 23 May)

Event Time Altitude Azimuth Distance (km) Brightness Sun altitude
Exits shadow 00:41:45 - 185° (S) 3,034 6.2 -13.1°
Reaches altitude 10° 00:42:41 10° 185° (S) 2,681 5.9 -13.0°
Maximum altitude 00:48:49 83° 99° (E) 972 4.1 -12.3°
Drops below altitude 10° 00:55:00 10° 13° (NNE) 2,706 7.1 -11.6°
Sets 00:57:31 0° 13° (NNE) 3,660 7.8 -11.3°
